Location: Adrasan
(36.3319°N, 30.4314°E)
Time: 08:14:43
(UTC+00:00)

NOAA 6 - Pass Details

Date: 09 December 2023
Orbit: 770 x 784 km, 98.6° (Epoch: 29 February)

Event Time Altitude Azimuth Distance (km) Brightness Sun altitude
Rises 16:22:27 0° 170° (S) 3,241 7.3 -19.4°
Reaches altitude 10° 16:24:45 10° 173° (S) 2,316 6.6 -19.9°
Maximum altitude 16:29:51 73° 258° (WSW) 810 4.2 -20.9°
Drops below altitude 10° 16:34:58 10° 343° (NNW) 2,323 6.5 -21.9°
Sets 16:37:18 0° 345° (NNW) 3,252 7.3 -22.3°
